This is the latest recevied weather packets stored in our database for station/object W2GRK-15. If no packets are shown the sender has not sent any weather packets the latest 10 day(s).
| Time | Temp. | Humidity | Pressure | Rain* | Wind** | Luminosity | Snow |
|---|---|---|---|---|---|---|---|
| 1777402951 | 17.22° C | 49% | 1020.6 hPa | 0 mm | - | 240 W/m² | - |
| 1777402840 | 17.22° C | 49% | 1020.5 hPa | 0 mm | - | 251 W/m² | - |
| 1777402395 | 17.22° C | 49% | 1020.7 hPa | 0 mm | - | 248 W/m² | - |
| 1777402190 | 17.22° C | 50% | 1020.9 hPa | 0 mm | - | 278 W/m² | - |
| 1777401799 | 17.22° C | 48% | 1021.2 hPa | 0 mm | - | 325 W/m² | - |
| 1777401026 | 17.78° C | 47% | 1021 hPa | 0 mm | - | 234 W/m² | - |
| 1777400785 | 17.22° C | 48% | 1021.1 hPa | 0 mm | - | 207 W/m² | - |
| 1777400124 | 17.78° C | 47% | 1020.9 hPa | 0 mm | - | 184 W/m² | - |
| 1777399882 | 17.22° C | 46% | 1021 hPa | 0 mm | - | 187 W/m² | - |
| 1777399818 | 17.78° C | 46% | 1020.8 hPa | 0 mm | - | 187 W/m² | - |
| 1777399045 | 17.78° C | 45% | 1021.1 hPa | 0 mm | - | 169 W/m² | - |
| 1777399001 | 17.78° C | 47% | 1021 hPa | 0 mm | - | 171 W/m² | - |
| 1777398803 | 17.22° C | 46% | 1021.1 hPa | 0 mm | - | 179 W/m² | - |
| 1777398626 | 17.22° C | 46% | 1021 hPa | 0 mm | - | 189 W/m² | - |
| 1777398497 | 17.22° C | 46% | 1021.2 hPa | 0 mm | - | 191 W/m² | - |
| 1777398449 | 17.22° C | 45% | 1021 hPa | 0 mm | - | 191 W/m² | - |
| 1777398385 | 17.22° C | 45% | 1021 hPa | 0 mm | - | 188 W/m² | - |
| 1777397547 | 17.22° C | 45% | 1021.3 hPa | 0 mm | - | 165 W/m² | - |
| 1777397370 | 17.22° C | 45% | 1021.3 hPa | 0 mm | - | 164 W/m² | - |
| 1777397241 | 17.78° C | 45% | 1021.1 hPa | 0 mm | - | 162 W/m² | - |
| 1777396887 | 17.78° C | 46% | 1021.4 hPa | 0 mm | - | 158 W/m² | - |
| 1777396709 | 17.78° C | 45% | 1021.5 hPa | 0 mm | - | 159 W/m² | - |
| 1777396468 | 17.22° C | 45% | 1021.4 hPa | 0 mm | - | 167 W/m² | - |
| 1777395566 | 18.33° C | 45% | 1021.6 hPa | 0 mm | - | 257 W/m² | - |
| 1777395389 | 17.78° C | 46% | 1021.8 hPa | 0 mm | - | 283 W/m² | - |
* Rain latest hour (hover to see other rain measurements)
** Current wind speed in m/s (hover to see current wind gust speed)